Location: Newark
(21.1200°N, 73.4000°E)
Time: 02:25:38
(UTC+00:00)

Explorer 11/Cluster Stage 4 - Visible Passes

Search period start: 27 January 2020 00:00
Search period end: 06 February 2020 00:00
Orbit: 467 x 1259 km, 28.8° (Epoch: 26 January)

Date Brightness Start Highest point End Pass type
(mag) Time Alt. Az. Time Alt. Az. Time Alt. Az.
27 Jan 7.1 13:34:51 10° WNW 13:42:00 72° SSW 13:47:41 10° ESE visible
27 Jan 8.7 15:26:04 10° W 15:30:10 19° SW 15:30:28 19° SSW visible
28 Jan 7.5 13:23:56 10° WNW 13:31:12 63° SSW 13:37:04 10° SE visible
28 Jan 8.9 15:15:39 10° WSW 15:19:21 16° SW 15:21:20 14° SSW visible
29 Jan 7.8 13:13:01 10° WNW 13:20:22 55° SSW 13:26:23 10° SE visible
29 Jan 9.2 15:05:23 10° WSW 15:08:31 14° SW 15:11:22 10° S visible
30 Jan 9.4 14:55:24 10° WSW 14:57:40 12° SW 14:59:49 10° SSW visible
04 Feb 9.1 01:16:58 10° S 01:19:13 13° SE 01:21:40 10° ESE visible
05 Feb 8.8 01:05:45 10° S 01:08:27 16° SE 01:11:28 10° ESE visible
